Simultaneous Nadir Overpasses (SNOs) Predictions

Prediction of SNOs between GOES-15 and TERRA Satellite Orbit:

Table of predicted SNOs for the next 14.0 days since TLE Epoch: 10/15/2022
Index Date Time (GOES-15) GOES-15 Lat,Lon TERRA Lat,Lon Distance(km) Time Diff (sec)
1 10/15/2022 06:54:13 0.30,-128.36 0.01,-129.62 143.60 80
2 10/17/2022 06:37:35 0.29,-128.38 0.72,-126.25 241.46 80
3 10/17/2022 18:58:23 -0.29,-128.38 0.35,-131.30 332.47 80
4 10/19/2022 18:47:05 -0.28,-128.39 -0.39,-127.93 52.63 80
5 10/21/2022 18:33:06 -0.28,-128.40 -1.09,-124.55 437.53 80
6 10/22/2022 06:54:03 0.28,-128.41 0.02,-129.64 140.18 80
7 10/24/2022 06:37:24 0.28,-128.41 0.73,-126.26 243.97 80
8 10/24/2022 18:58:11 -0.28,-128.40 0.36,-131.31 331.06 80
9 10/26/2022 18:46:52 -0.28,-128.40 -0.37,-127.93 52.68 80
10 10/28/2022 18:32:52 -0.27,-128.38 -1.06,-124.55 435.60 80
